TimeCDT,TemperatureF,Dew PointF,Humidity,Sea Level PressureIn,VisibilityMPH,Wind Direction,Wind SpeedMPH,Gust SpeedMPH,PrecipitationIn,Events,Conditions,WindDirDegrees,DateUTC
12:08 AM,54.0,37.0,53,-9999,-9999.0,NE,16.1,-,N/A,,Unknown,40,2012-10-12 05:08:00
12:28 AM,53.1,35.1,50,-9999,-9999.0,NE,11.5,-,N/A,,Unknown,40,2012-10-12 05:28:00
12:48 AM,52.0,35.1,53,-9999,-9999.0,NNE,12.7,-,N/A,,Unknown,30,2012-10-12 05:48:00
1:08 AM,51.1,33.1,50,-9999,-9999.0,NNE,12.7,-,N/A,,Unknown,20,2012-10-12 06:08:00
1:28 AM,50.0,33.1,52,-9999,-9999.0,North,9.2,-,N/A,,Unknown,360,2012-10-12 06:28:00
1:48 AM,48.9,32.2,52,-9999,-9999.0,North,12.7,-,N/A,,Unknown,10,2012-10-12 06:48:00
2:08 AM,48.0,31.1,52,-9999,-9999.0,North,11.5,-,N/A,,Unknown,10,2012-10-12 07:08:00
2:28 AM,48.0,31.1,52,-9999,-9999.0,North,11.5,-,N/A,,Unknown,10,2012-10-12 07:28:00
2:48 AM,48.0,31.1,52,-9999,-9999.0,North,11.5,-,N/A,,Unknown,350,2012-10-12 07:48:00
3:08 AM,46.9,30.0,52,-9999,-9999.0,North,13.8,-,N/A,,Unknown,360,2012-10-12 08:08:00
3:28 AM,46.9,30.0,52,-9999,-9999.0,North,13.8,-,N/A,,Unknown,350,2012-10-12 08:28:00
3:48 AM,46.4,30.2,53,-9999,-9999.0,North,11.5,-,N/A,,Unknown,350,2012-10-12 08:48:00
4:08 AM,46.0,29.1,52,-9999,-9999.0,North,13.8,-,N/A,,Unknown,350,2012-10-12 09:08:00
4:28 AM,46.0,27.1,48,-9999,-9999.0,NNW,13.8,-,N/A,,Unknown,340,2012-10-12 09:28:00
4:48 AM,45.0,29.1,54,-9999,-9999.0,North,10.4,-,N/A,,Unknown,350,2012-10-12 09:48:00
5:08 AM,45.0,27.1,50,-9999,-9999.0,NNW,12.7,-,N/A,,Unknown,340,2012-10-12 10:08:00
5:28 AM,45.0,29.1,54,-9999,-9999.0,North,11.5,-,N/A,,Unknown,350,2012-10-12 10:28:00
5:48 AM,44.1,29.1,56,-9999,-9999.0,North,10.4,-,N/A,,Unknown,360,2012-10-12 10:48:00
6:08 AM,44.1,28.0,53,-9999,-9999.0,NNW,9.2,-,N/A,,Unknown,340,2012-10-12 11:08:00
6:28 AM,44.1,28.0,53,-9999,-9999.0,North,10.4,-,N/A,,Unknown,350,2012-10-12 11:28:00
6:48 AM,43.0,28.0,56,-9999,-9999.0,North,12.7,-,N/A,,Unknown,350,2012-10-12 11:48:00
7:08 AM,43.0,27.1,54,-9999,-9999.0,North,10.4,-,N/A,,Unknown,350,2012-10-12 12:08:00
7:28 AM,43.0,28.0,56,-9999,-9999.0,North,8.1,-,N/A,,Unknown,350,2012-10-12 12:28:00
7:48 AM,43.0,29.1,58,-9999,-9999.0,North,8.1,-,N/A,,Unknown,360,2012-10-12 12:48:00
8:08 AM,43.0,29.1,58,-9999,-9999.0,North,8.1,-,N/A,,Unknown,360,2012-10-12 13:08:00
8:28 AM,42.1,29.1,60,-9999,-9999.0,North,8.1,-,N/A,,Unknown,360,2012-10-12 13:28:00
8:48 AM,42.8,30.2,61,-9999,-9999.0,NE,6.9,-,N/A,,Unknown,40,2012-10-12 13:48:00
9:08 AM,43.0,30.0,60,-9999,-9999.0,North,4.6,-,N/A,,Unknown,360,2012-10-12 14:08:00
9:28 AM,43.0,31.1,63,-9999,-9999.0,NNE,1.2,-,N/A,,Unknown,20,2012-10-12 14:28:00
9:48 AM,44.1,31.1,60,-9999,-9999.0,North,1.2,-,N/A,,Unknown,350,2012-10-12 14:48:00
10:08 AM,45.0,31.1,58,-9999,-9999.0,NNE,1.2,-,N/A,,Unknown,20,2012-10-12 15:08:00
10:28 AM,45.0,32.2,61,-9999,-9999.0,NW,2.3,-,N/A,,Unknown,310,2012-10-12 15:28:00
10:48 AM,-9999,-9999,N/A,-9999,-9999.0,North,-9999.0,-,N/A,,Unknown,0,2012-10-12 15:48:00
11:08 AM,46.0,31.1,56,-9999,-9999.0,South,4.6,-,N/A,,Unknown,190,2012-10-12 16:08:00
11:28 AM,46.9,33.1,59,-9999,-9999.0,South,4.6,-,N/A,,Unknown,170,2012-10-12 16:28:00
12:08 PM,48.9,33.1,54,-9999,-9999.0,SSW,3.5,-,N/A,,Unknown,210,2012-10-12 17:08:00
12:28 PM,48.9,33.1,54,-9999,-9999.0,South,5.8,-,N/A,,Unknown,190,2012-10-12 17:28:00
12:48 PM,50.0,36.1,59,-9999,-9999.0,SW,1.2,-,N/A,,Unknown,220,2012-10-12 17:48:00
1:08 PM,50.0,34.2,55,-9999,-9999.0,SW,4.6,-,N/A,,Unknown,220,2012-10-12 18:08:00
1:28 PM,51.1,35.1,54,-9999,-9999.0,NE,5.8,-,N/A,,Unknown,50,2012-10-12 18:28:00
1:48 PM,51.1,34.2,52,-9999,-9999.0,WSW,6.9,-,N/A,,Unknown,250,2012-10-12 18:48:00
2:08 PM,52.0,35.1,53,-9999,-9999.0,SW,3.5,-,N/A,,Unknown,220,2012-10-12 19:08:00
2:28 PM,52.0,35.1,53,-9999,-9999.0,East,11.5,-,N/A,,Unknown,100,2012-10-12 19:28:00
2:48 PM,55.9,37.0,49,-9999,-9999.0,SE,12.7,-,N/A,,Unknown,130,2012-10-12 19:48:00
3:08 PM,61.0,41.2,48,-9999,-9999.0,South,8.1,-,N/A,,Unknown,170,2012-10-12 20:08:00
3:28 PM,63.0,42.1,46,-9999,-9999.0,SSE,5.8,-,N/A,,Unknown,150,2012-10-12 20:28:00
3:48 PM,61.0,39.0,44,-9999,-9999.0,SE,19.6,-,N/A,,Unknown,140,2012-10-12 20:48:00
4:08 PM,60.1,39.0,46,-9999,-9999.0,SE,18.4,-,N/A,,Unknown,140,2012-10-12 21:08:00
4:28 PM,59.0,39.0,48,-9999,-9999.0,SSE,15.0,-,N/A,,Unknown,150,2012-10-12 21:28:00
4:48 PM,59.0,39.0,48,-9999,-9999.0,SSE,13.8,-,N/A,,Unknown,150,2012-10-12 21:48:00
5:08 PM,57.0,38.1,49,-9999,-9999.0,SSE,13.8,-,N/A,,Unknown,150,2012-10-12 22:08:00
5:28 PM,57.0,39.0,51,-9999,-9999.0,SSE,10.4,-,N/A,,Unknown,150,2012-10-12 22:28:00
5:48 PM,59.0,40.1,50,-9999,-9999.0,SE,12.7,-,N/A,,Unknown,140,2012-10-12 22:48:00
6:08 PM,60.1,40.1,48,-9999,-9999.0,SSE,15.0,-,N/A,,Unknown,150,2012-10-12 23:08:00
6:28 PM,59.0,40.1,50,-9999,-9999.0,SE,13.8,-,N/A,,Unknown,140,2012-10-12 23:28:00
6:48 PM,57.9,40.1,52,-9999,-9999.0,SE,11.5,-,N/A,,Unknown,140,2012-10-12 23:48:00
7:08 PM,57.2,39.2,51,-9999,-9999.0,SE,11.5,-,N/A,,Unknown,130,2012-10-13 00:08:00
7:28 PM,55.9,40.1,55,-9999,-9999.0,ESE,6.9,-,N/A,,Unknown,110,2012-10-13 00:28:00
7:48 PM,55.9,40.1,55,-9999,-9999.0,SE,9.2,-,N/A,,Unknown,130,2012-10-13 00:48:00
8:08 PM,55.9,40.1,55,-9999,-9999.0,SE,9.2,-,N/A,,Unknown,130,2012-10-13 01:08:00
8:28 PM,55.9,41.2,58,-9999,-9999.0,SE,8.1,-,N/A,,Unknown,140,2012-10-13 01:28:00
8:48 PM,55.9,40.1,55,-9999,-9999.0,SE,11.5,-,N/A,,Unknown,140,2012-10-13 01:48:00
9:08 PM,55.9,40.1,55,-9999,-9999.0,SE,16.1,-,N/A,,Unknown,140,2012-10-13 02:08:00
9:28 PM,55.4,41.0,58,-9999,-9999.0,SE,15.0,-,N/A,,Unknown,140,2012-10-13 02:28:00
9:48 PM,55.0,41.2,60,-9999,-9999.0,SE,19.6,-,N/A,,Unknown,140,2012-10-13 02:48:00
10:08 PM,55.0,41.2,60,-9999,-9999.0,SE,19.6,-,N/A,,Unknown,140,2012-10-13 03:08:00
10:28 PM,55.0,41.2,60,-9999,-9999.0,SE,23.0,-,N/A,,Unknown,140,2012-10-13 03:28:00
10:48 PM,55.9,43.2,62,-9999,-9999.0,SE,21.9,-,N/A,,Unknown,140,2012-10-13 03:48:00
11:08 PM,55.9,44.1,64,-9999,-9999.0,SE,20.7,-,N/A,,Unknown,130,2012-10-13 04:08:00
11:28 PM,55.9,45.1,67,-9999,-9999.0,SE,16.1,-,N/A,,Unknown,130,2012-10-13 04:28:00
11:48 PM,57.0,50.2,78,-9999,-9999.0,WNW,5.8,-,N/A,,Unknown,300,2012-10-13 04:48:00